Weather History for Buffalo, WY

Change the Weather History Date:

Wednesday, July 31, 2013

  Actual Average Record
Temperature  
Mean Temperature 69 °F 72 °F  
Max Temperature 86 °F 86 °F 94 °F (2007)
Min Temperature 51 °F 58 °F 51 °F (2013)
Degree Days  
Heating Degree Days 0 1  
Month to date heating degree days 1 34  
Since 1 June heating degree days 101 188  
Since 1 July heating degree days 1 25  
Cooling Degree Days 4 8  
Month to date cooling degree days 258 203  
Year to date cooling degree days 345 261  
Since 1 June cooling degree days 335 254  
Growing Degree Days 19 (Base 50)    
Moisture  
Dew Point 48 °F    
Average Humidity 50    
Maximum Humidity 77    
Minimum Humidity 23    
Precipitation  
Precipitation 0.02 in 0.06 in 0.02 in (2013)
Month to date precipitation 0.11 1.66  
Year to date precipitation 4.19 9.46  
Sea Level Pressure  
Sea Level Pressure 30.14 in    
Wind  
Wind Speed 5 mph (SW)    
Max Wind Speed 20 mph    
Max Gust Speed 30 mph    
Visibility 10 miles    
Events Rain , Thunderstorm    
T = Trace of Precipitation, MM = Missing Value Source: NWS Daily Summary

Daily Weather History Graph

Daily Weather History Graph

Search for Another Location

Airport:

Trip Planner

Search our weather history database for the weather conditions in past years. The results will help you decide how hot, cold, wet, or windy it might be!

Date:

Astronomy

Jul. 31, 2013 Rise Set
Actual Time 5:53 AM MDT 8:32 PM MDT
Civil Twilight 5:19 AM MDT 9:05 PM MDT
Nautical Twilight 4:37 AM MDT 9:47 PM MDT
Astronomical Twilight 3:49 AM MDT 10:35 PM MDT
Moon 12:50 AM MDT (7/31) 3:52 PM MDT (7/31)
Length of Visible Light 15h 45m
Length of Day
14h 39m
Waning Crescent, 31% of the Moon is Illuminated
Jul 31
Waning Crescent
Aug 6
New
Aug 14
First Quarter
Aug 20
Full
Aug 28
Last Quarter

Hourly Weather History & Observations

Time (MDT) Temp. Dew Point Humidity Pressure Visibility Wind Dir Wind Speed Gust Speed Precip Events Conditions
1:53 AM 57.0 °F 48.9 °F 74% 30.19 in 10.0 mi SSW 9.2 mph - N/A   Clear
2:53 AM 57.0 °F 50.0 °F 77% 30.20 in 10.0 mi South 10.4 mph - N/A   Overcast
3:53 AM 55.0 °F 48.0 °F 77% 30.19 in 10.0 mi South 5.8 mph - N/A   Clear
4:53 AM 54.0 °F 46.9 °F 77% 30.19 in 10.0 mi WSW 3.5 mph - N/A   Clear
5:53 AM 55.9 °F 46.0 °F 69% 30.21 in 10.0 mi NW 4.6 mph - N/A   Clear
6:53 AM 55.9 °F 48.9 °F 77% 30.22 in 10.0 mi Calm Calm - N/A   Mostly Cloudy
7:53 AM 64.9 °F 46.0 °F 50% 30.20 in 10.0 mi Calm Calm - N/A   Clear
8:53 AM 66.0 °F 50.0 °F 56% 30.21 in 10.0 mi NE 6.9 mph - N/A   Clear
9:53 AM 71.1 °F 48.9 °F 45% 30.20 in 10.0 mi Variable 4.6 mph - N/A   Clear
10:53 AM 73.0 °F 50.0 °F 44% 30.19 in 10.0 mi ENE 4.6 mph - N/A   Clear
11:53 AM 75.9 °F 45.0 °F 33% 30.16 in 10.0 mi SE 6.9 mph - N/A   Clear
12:53 PM 79.0 °F 46.0 °F 31% 30.14 in 10.0 mi SSE 6.9 mph - N/A   Clear
1:53 PM 79.0 °F 46.9 °F 32% 30.12 in 10.0 mi Calm Calm - N/A   Clear
2:53 PM 82.0 °F 46.0 °F 28% 30.09 in 10.0 mi Variable 4.6 mph - N/A   Clear
3:53 PM 82.9 °F 45.0 °F 26% 30.08 in 10.0 mi Variable 4.6 mph - N/A   Clear
4:53 PM 82.9 °F 45.0 °F 26% 30.06 in 10.0 mi Calm Calm - N/A   Clear
5:53 PM 84.9 °F 43.0 °F 23% 30.03 in 10.0 mi North 4.6 mph - N/A   Partly Cloudy
6:53 PM 81.0 °F 43.0 °F 26% 30.04 in 10.0 mi Variable 6.9 mph - N/A   Clear
7:46 PM 77.0 °F 44.6 °F 32% 30.21 in 10.0 mi North 8.1 mph - 0.00 in Rain , Thunderstorm Light Rain
7:53 PM 75.0 °F 46.0 °F 36% 30.06 in 10.0 mi WNW 8.1 mph - 0.00 in Rain , Thunderstorm Light Rain
8:01 PM 71.6 °F 51.8 °F 50% 30.21 in 7.0 mi Calm Calm - 0.02 in Rain Light Rain
8:53 PM 66.9 °F 55.9 °F 68% 30.07 in 10.0 mi West 6.9 mph - 0.02 in   Clear
9:53 PM 66.0 °F 53.1 °F 63% 30.09 in 10.0 mi WSW 8.1 mph - N/A   Clear
10:53 PM 71.1 °F 48.9 °F 45% 30.05 in 10.0 mi Calm Calm - N/A   Partly Cloudy
11:53 PM 69.1 °F 50.0 °F 51% 30.04 in 10.0 mi South 3.5 mph - N/A   Clear